www.pogodaiklimat.ru

Погода и климат >> Архив погоды >> Великобритания >> Абойн


ПОГОДА в Абойне

  • Прогноз погоды в Абойне
  • Монитор погоды в Абойне

АРХИВ ПОГОДЫ в Абойне

Время (UTC), дата Ветер
(напр.,м/с)
 
Видим.   Явления Облачность Т
(С)
Тd
(С)
f
(%)
Тe
(С)
Тes
(С)
Комфортность P
(гПа)
Po
(гПа)
Тmin
(С)
Tmax
(С)
R
(мм)
R24
(мм)
S
(см)
13 18.06 З 6 45 км н/о +16.1 +7.3 56 +15 +15 1007.2 990.7
14 18.06 ЮЗ 8
{14}
35 км н/о +17.5 +7.6 52 +16 +16 1007.3 990.9
15 18.06 З 7
{13}
35 км н/о +17.4 +8.1 54 +16 +16 1007.6 991.2
16 18.06 З 7
{13}
45 км н/о +16.5 +5.7 49 +15 +15 1007.8 991.3
17 18.06 З 6 40 км н/о +16.5 +6.8 53 +16 +16 1007.8 991.3
18 18.06 З 5 45 км н/о +15.8 +7.1 56 +15 +15 1007.9 991.4 +18.2
19 18.06 З 5 50 км н/о +15.2 +7.1 58 +14 +14 1008.1 991.5
20 18.06 ЮЗ 5 50 км н/о +14.2 +7.2 63 +13 +13 1008.5 991.8
21 18.06 З 1 45 км н/о +11.6 +6.3 70 +12 +12 1008.9 992.1
22 18.06 СВ 1 50 км н/о +9.9 +6.6 80 +10 +10 1009.0 992.1
23 18.06 В 2 50 км н/о +8.0 +6.2 88 +6 +6 1009.0 992.0
00 19.06 СВ 2 40 км н/о +8.1 +7.0 93 +6 +6 1008.6 991.7
01 19.06 В 1 30 км н/о +5.8 +4.5 91 +4 +4 1008.6 991.4
02 19.06 В 1 22 км н/о +4.6 +4.0 96 +3 +3 1008.5 991.3
03 19.06 ЮВ 1 10 км н/о +4.2 +3.8 97 +3 +3 1008.2 991.0
04 19.06 ЮЗ 1 12 км н/о +4.0 +3.7 98 +2 +2 1008.1 990.9
05 19.06 З 2 8000 м дымка н/о +4.6 +4.4 99 +2 +2 1007.6 990.4
06 19.06 СЗ 1 40 км н/о +8.7 +8.6 99 +9 +9 1007.2 990.3 +3.6
07 19.06 В 4 40 км н/о +12.5 +9.0 79 +11 +11 1006.4 989.7
08 19.06 Ю 4 35 км н/о +14.9 +8.6 66 +14 +14 1005.9 989.4
09 19.06 ЮЗ 7 40 км н/о +15.5 +7.7 60 +14 +14 1005.5 989.0
10 19.06 Ю 5 50 км н/о +16.5 +7.3 54 +16 +16 1005.1 988.6
11 19.06 Ю 6 50 км н/о +16.5 +5.3 47 +15 +15 1004.9 988.5
12 19.06 Ю 5 45 км н/о +18.4 +7.3 48 +18 +18 1004.5 988.2
13 19.06 З 6 45 км н/о +18.0 +6.9 48 +18 +18 1004.4 988.0
14 19.06 ЮЗ 7 35 км н/о +17.0 +6.5 50 +16 +16 1004.2 987.9
15 19.06 ЮЗ 6 45 км н/о +17.0 +6.9 51 +16 +16 1003.9 987.5
16 19.06 З 4 50 км н/о +16.4 +7.3 55 +16 +16 1003.8 987.3
17 19.06 З 3 40 км слаб. морось с дождем н/о +14.4 +8.3 67 +14 +14 1004.0 987.5
18 19.06 З 4 50 км в посл. час дождь н/о +16.2 +8.3 59 +16 +16 1003.6 987.2 +19.0 0.0
19 19.06 ЮЗ 4 50 км н/о +14.9 +7.3 60 +14 +14 1003.7 987.2
20 19.06 З 3 45 км н/о +14.5 +8.0 65 +14 +14 1003.9 987.3
21 19.06 З 1 50 км н/о +10.5 +6.2 75 +11 +11 1004.3 987.5
22 19.06 З 1 50 км н/о +8.4 +6.6 88 +9 +9 1004.4 987.5
23 19.06 ЮЗ 1 45 км н/о +8.8 +7.2 90 +9 +9 1004.4 987.6
00 20.06 штиль 0 45 км слаб. ливневой дождь н/о +8.6 +7.5 93 +8 +8 1004.1 987.2 0.0
01 20.06 З 1 40 км слаб. дождь н/о +8.3 +7.6 95 +8 +8 1003.8 986.9
02 20.06 СЗ 2 9000 м дождь н/о +8.7 +8.3 97 +7 +7 1003.5 986.6
03 20.06 СЗ 1 22 км слаб. ливневой дождь н/о +8.7 +8.3 97 +9 +9 1003.3 986.4
04 20.06 ЮЗ 1 50 км в посл. час дождь н/о +8.9 +8.2 95 +9 +9 1003.3 986.5
05 20.06 Ю 2 50 км в посл. час дождь н/о +8.5 +7.6 94 +7 +7 1003.4 986.5
06 20.06 СЗ 2 50 км в посл. час дождь н/о +8.7 +7.6 93 +7 +7 1003.2 986.4 +8.1 1
07 20.06 С 1 35 км н/о +11.8 +7.5 75 +12 +12 1003.0 986.3
08 20.06 З 5 45 км н/о +12.7 +6.4 65 +11 +11 1003.0 986.4
09 20.06 З 5 35 км н/о +12.4 +4.4 58 +10 +10 1003.1 986.5
10 20.06 З 6 50 км н/о +12.9 +4.9 58 +11 +11 1003.2 986.6
11 20.06 З 7 50 км н/о +14.0 +5.6 57 +12 +12 1003.1 986.5
12 20.06 З 7 45 км н/о +14.8 +6.2 56 +13 +13 1003.5 987.0
13 20.06 З 7 12 км в посл. час дождь н/о +14.9 +7.7 62 +13 +13 1003.4 986.9
14 20.06 З 6 50 км в посл. час дождь н/о +16.8 +7.3 53 +16 +16 1003.5 987.1
15 20.06 З 7 35 км в посл. час дождь н/о +15.3 +6.7 56 +14 +14 1004.3 987.8
16 20.06 З 5 50 км н/о +15.7 +5.8 52 +15 +15 1004.4 988.0
17 20.06 З 7 40 км н/о +15.6 +5.8 52 +14 +14 1004.9 988.4
18 20.06 З 7 40 км н/о +15.8 +6.4 54 +14 +14 1005.3 988.8 +17.3 0.4
19 20.06 З 6 50 км н/о +13.9 +5.2 56 +12 +12 1006.1 989.5
20 20.06 З 5 50 км н/о +12.4 +5.5 63 +10 +10 1006.9 990.2
21 20.06 З 4 50 км н/о +10.5 +5.1 69 +8 +8 1007.7 990.8
22 20.06 З 4 50 км н/о +9.2 +5.0 75 +7 +7 1008.2 991.3
23 20.06 З 4 50 км н/о +8.7 +4.8 76 +6 +6 1008.9 991.9
00 21.06 ЮЗ 5 45 км н/о +9.1 +4.4 72 +6 +6 1009.1 992.1
01 21.06 З 4 50 км н/о +8.6 +4.7 76 +6 +6 1009.1 992.1
02 21.06 З 3 50 км н/о +8.5 +4.6 76 +6 +6 1009.4 992.4
03 21.06 З 6 50 км н/о +9.0 +4.7 74 +5 +5 1009.4 992.5
04 21.06 З 4 50 км н/о +8.7 +4.2 73 +6 +6 1009.7 992.8
05 21.06 З 3 50 км н/о +8.9 +4.5 74 +7 +7 1010.3 993.3
06 21.06 З 4 50 км н/о +9.7 +4.7 71 +7 +7 1010.8 993.8 +7.2
07 21.06 З 5 45 км н/о +11.1 +4.6 64 +9 +9 1011.0 994.2
08 21.06 З 5 45 км н/о +12.1 +4.3 59 +10 +10 1011.6 994.8
09 21.06 З 4 45 км н/о +12.5 +4.3 57 +11 +11 1012.4 995.6
10 21.06 З 5 50 км н/о +12.7 +4.3 57 +11 +11 1012.9 996.1
11 21.06 З 7 35 км н/о +15.1 +5.6 53 +13 +13 1013.2 996.5
12 21.06 СЗ 4 45 км н/о +14.0 +4.7 53 +13 +13 1013.8 997.1
13 21.06 СЗ 6 50 км в посл. час дождь н/о +15.3 +6.0 54 +14 +14 1014.5 997.8
14 21.06 ЮЗ 3 45 км в посл. час дождь н/о +15.6 +7.1 57 +15 +15 1015.0 998.4
15 21.06 З 6 40 км н/о +14.7 +4.8 51 +13 +13 1016.2 999.4
16 21.06 З 4 50 км в посл. час дождь н/о +14.3 +6.3 59 +13 +13 1016.3 999.6
17 21.06 С 4 45 км в посл. час дождь н/о +13.6 +7.0 64 +12 +12 1017.2 1000.4
18 21.06 СЗ 5 50 км в посл. час дождь н/о +13.1 +5.7 61 +11 +11 1017.5 1000.7 +16.7 0.0
19 21.06 СЗ 3 45 км в посл. час дождь н/о +14.3 +5.5 55 +14 +14 1018.2 1001.4
20 21.06 СЗ 2 50 км н/о +12.4 +5.8 64 +12 +12 1018.9 1002.0
21 21.06 СВ 1 50 км н/о +10.6 +5.9 73 +10 +10 1019.7 1002.7
22 21.06 СЗ 1 50 км н/о +9.7 +6.8 82 +10 +10 1020.1 1003.1
23 21.06 З 1 50 км н/о +5.9 +3.7 86 +6 +6 1020.6 1003.3
00 22.06 ЮЗ 1 50 км н/о +4.4 +3.5 94 +4 +4 1021.0 1003.6 0.0
01 22.06 СЗ 2 50 км н/о +3.2 +2.2 93 +1 +1 1021.2 1003.7
02 22.06 СЗ 2 45 км н/о +2.5 +1.8 95 -0 -0 1021.4 1003.8
03 22.06 З 2 45 км н/о +2.5 +2.1 97 -0 -0 1021.4 1003.8
04 22.06 З 2 22 км н/о +2.9 +2.6 98 0 0 1021.3 1003.7
05 22.06 З 2 40 км н/о +4.5 +3.5 93 +2 +2 1021.2 1003.8
06 22.06 З 2 50 км н/о +7.4 +3.9 78 +5 +5 1020.9 1003.7 +1.9 0.0
07 22.06 З 2 50 км н/о +10.4 +4.2 65 +10 +10 1020.7 1003.6
08 22.06 В 2 45 км н/о +13.8 +7.1 64 +13 +13 1020.3 1003.5
09 22.06 СЗ 2 40 км н/о +16.2 +7.1 55 +16 +16 1020.0 1003.2
10 22.06 ЮЗ 2 23 км н/о +16.6 +6.0 50 +17 +17 1019.6 1002.9
11 22.06 Ю 4 35 км н/о +17.0 +4.7 44 +17 +17 1019.5 1002.9
12 22.06 ЮЗ 6 50 км н/о +17.5 +7.6 52 +17 +17 1019.5 1002.9
13 22.06 ЮЗ 4 50 км н/о +18.4 +6.1 44 +19 +19 1019.1 1002.6
14 22.06 ЮЗ 6 45 км н/о +16.5 +7.0 53 +15 +15 1019.7 1003.0
15 22.06 ЮЗ 6 45 км н/о +16.1 +5.4 49 +15 +15 1020.0 1003.3
16 22.06 З 4 45 км н/о +16.9 +7.0 52 +17 +17 1019.5 1002.9
17 22.06 Ю 3 30 км н/о +17.1 +8.0 55 +17 +17 1019.5 1002.8
18 22.06 ЮЗ 4 50 км н/о +16.7 +6.9 52 +16 +16 1019.5 1002.9 +19.0
19 22.06 ЮЗ 4 45 км н/о +15.4 +7.8 60 +14 +14 1019.8 1003.1
20 22.06 Ю 2 40 км н/о +14.5 +8.1 65 +15 +15 1020.3 1003.5
21 22.06 Ю 1 50 км н/о +13.5 +7.6 67 +15 +15 1020.7 1003.8
22 22.06 В 1 50 км н/о +12.6 +8.2 75 +13 +13 1021.2 1004.3
23 22.06 В 1 45 км н/о +11.1 +7.8 80 +11 +11 1021.5 1004.5
00 23.06 СВ 1 40 км н/о +9.6 +7.6 87 +10 +10 1021.5 1004.3
01 23.06 В 1 45 км н/о +8.9 +7.3 90 +9 +9 1021.5 1004.4
02 23.06 З 1 45 км н/о +8.1 +7.3 95 +8 +8 1021.6 1004.4
03 23.06 З 1 40 км н/о +7.8 +7.0 95 +7 +7 1021.9 1004.6
04 23.06 З 1 35 км н/о +6.8 +6.3 97 +6 +6 1022.0 1004.7
05 23.06 СЗ 1 29 км н/о +7.7 +7.3 97 +7 +7 1021.6 1004.4
06 23.06 З 2 50 км н/о +9.8 +8.5 92 +9 +9 1022.0 1004.9 +6.4
07 23.06 З 2 40 км н/о +11.6 +9.0 84 +11 +11 1022.2 1005.2
08 23.06 ЮЗ 1 45 км н/о +13.7 +10.0 78 +15 +15 1022.2 1005.3
09 23.06 СВ 1 50 км н/о +15.4 +10.4 72 +17 +17 1022.1 1005.3
10 23.06 В 4 45 км н/о +17.4 +11.5 68 +17 +17 1021.9 1005.2
11 23.06 В 5 29 км н/о +17.8 +12.3 70 +17 +17 1021.9 1005.3
12 23.06 В 5 30 км н/о +19.2 +12.2 64 +20 +20 1021.5 1005.0
13 23.06 В 6 35 км н/о +19.3 +12.1 63 +20 +20 1021.4 1004.9
14 23.06 В 7 35 км н/о +18.8 +12.3 66 +19 +19 1021.7 1005.1
15 23.06 ЮВ 6 40 км н/о +18.4 +8.3 52 +18 +18 1022.0 1005.4
16 23.06 ЮВ 5 40 км н/о +18.6 +7.2 47 +19 +19 1021.9 1005.3
17 23.06 В 6 50 км н/о +17.2 +6.9 51 +16 +16 1022.5 1005.8
18 23.06 ЮВ 6 45 км н/о +15.5 +5.5 51 +14 +14 1022.9 1006.1 +19.6
19 23.06 ЮВ 4 50 км н/о +14.3 +5.4 55 +13 +13 1023.5 1006.6
20 23.06 В 4 50 км н/о +13.1 +6.5 64 +12 +12 1023.5 1006.6
21 23.06 В 3 50 км н/о +12.3 +8.2 76 +11 +11 1024.2 1007.2
22 23.06 В 2 50 км н/о +11.8 +8.9 82 +11 +11 1023.7 1006.6
23 23.06 ЮВ 2 45 км н/о +10.9 +9.4 90 +9 +9 1024.4 1007.3
00 24.06 В 1 35 км н/о +10.9 +9.6 92 +10 +10 1024.2 1007.1
01 24.06 В 1 35 км н/о +11.2 +10.3 94 +11 +11 1024.0 1007.0
02 24.06 В 2 27 км н/о +11.5 +10.3 92 +10 +10 1023.2 1006.2
03 24.06 В 3 25 км н/о +11.6 +10.5 93 +10 +10 1022.8 1005.8
04 24.06 В 2 24 км н/о +11.7 +10.6 93 +10 +10 1022.3 1005.3
05 24.06 В 3 12 км ливневой дождь н/о +11.7 +10.6 93 +10 +10 1022.3 1005.3
06 24.06 В 2 8000 м дождь н/о +11.3 +10.7 96 +10 +10 1022.4 1005.3 +10.9 3
07 24.06 В 5 13 км дождь н/о +11.3 +10.8 97 +9 +9 1021.0 1004.0
08 24.06 В 3 29 км слаб. морось н/о +11.6 +11.0 96 +10 +10 1021.2 1004.2
09 24.06 В 2 17 км в посл. час дождь н/о +11.6 +11.0 96 +11 +11 1021.4 1004.4
10 24.06 В 3 13 км н/о +11.6 +11.0 96 +10 +10 1021.2 1004.2
11 24.06 В 2 5000 м в посл. час дождь н/о +12.0 +11.6 97 +11 +11 1020.9 1003.9
12 24.06 В 2 7000 м дымка н/о +12.3 +11.5 95 +11 +11 1021.1 1004.1 3
13 24.06 В 2 6000 м слаб. ливневой дождь н/о +12.6 +12.1 97 +12 +12 1019.9 1003.0
14 24.06 С 2 11 км в посл. час дождь н/о +12.7 +11.7 94 +12 +12 1020.6 1003.7
15 24.06 С 2 40 км н/о +13.0 +12.1 94 +12 +12 1020.2 1003.3
16 24.06 С 3 35 км в посл. час дождь н/о +13.1 +12.0 93 +12 +12 1019.6 1002.7
17 24.06 С 2 50 км н/о +12.8 +11.7 93 +12 +12 1019.6 1002.7
18 24.06 СЗ 3 45 км в посл. час дождь н/о +12.3 +11.4 94 +11 +11 1019.8 1002.8 +13.2 3
19 24.06 СЗ 3 30 км н/о +12.1 +11.2 94 +10 +10 1020.4 1003.4
20 24.06 СЗ 2 45 км н/о +12.2 +11.3 94 +11 +11 1020.4 1003.5
21 24.06 З 3 45 км н/о +12.0 +10.9 93 +10 +10 1020.9 1004.0
22 24.06 З 3 50 км н/о +11.9 +10.7 92 +10 +10 1021.5 1004.5
23 24.06 З 2 40 км н/о +11.7 +10.9 95 +11 +11 1021.7 1004.7
00 25.06 З 3 50 км н/о +11.8 +10.5 92 +10 +10 1022.1 1005.1
01 25.06 З 2 50 км н/о +11.6 +10.2 91 +10 +10 1022.2 1005.2
02 25.06 З 4 50 км н/о +11.5 +10.0 90 +9 +9 1022.1 1005.1
03 25.06 З 3 50 км н/о +11.4 +9.9 90 +9 +9 1022.4 1005.4
04 25.06 З 3 50 км н/о +11.3 +9.8 90 +9 +9 1022.4 1005.4
05 25.06 З 4 50 км н/о +11.6 +9.9 89 +9 +9 1023.1 1006.1
06 25.06 З 3 50 км н/о +12.0 +10.1 88 +11 +11 1023.3 1006.3 +10.9
07 25.06 СЗ 3 50 км н/о +12.4 +10.5 88 +11 +11 1024.2 1007.2
08 25.06 СЗ 3 25 км н/о +12.5 +10.7 89 +11 +11 1024.5 1007.6
09 25.06 СЗ 3 13 км н/о +12.8 +10.8 88 +11 +11 1024.7 1007.7
10 25.06 С 4 40 км н/о +13.0 +11.1 88 +11 +11 1025.2 1008.2
11 25.06 С 4 45 км н/о +13.7 +11.4 86 +12 +12 1025.7 1008.7
12 25.06 С 4 50 км н/о +13.8 +11.1 84 +12 +12 1025.8 1008.9
13 25.06 С 4 40 км н/о +13.0 +10.3 84 +11 +11 1026.4 1009.4

 

Местоположение метеостанции Абойн (Великобритания): широта 57.08 долгота -2.83 высота над уровнем моря 140 м.

В архиве по умолчанию представлена погода в Абойне за последнюю неделю. Архивные данные за месяц целиком и за предыдущие месяцы, начиная с января 2011 года, Вы можете получить, выбрав интересующий диапазон дат из раскрывающегося списка и нажав кнопку "Ввод!".


*Определитесь, кто Вы:
робот инопланетянин человек

Внимание! Время в таблицах - всемирное. Для получения местного времени необходимо прибавить поправку, которая равна 0 ч.

Смотрите также архив погоды в соседних городах и на ближайших метеорологических станциях:

Погода в Абердине (Великобритания) (39 км)
Погода на Кэрнуэлле (Великобритания) (42 км)
Погода в Инвербери (Великобритания) (43 км)
Погода на Кайрнгорме (Великобритания) (49 км)
Погода на Авморе (Великобритания) (62 км)
Погода в Леучарсе (Великобритания) (76 км)
Погода в Лоссимуте (Великобритания) (77 км)
Погода в Кинлоссе (Великобритания) (77 км)
Погода в Страталлане (Великобритания) (101 км)
Погода в Тейн-Рендже (Великобритания) (107 км)

Пояснения к столбцам:

Ветер - указаны скорость ветра в м/с - средняя за 10 мин, порывы в срок и между сроками (в фигурных скобках) и направление, откуда дует ветер: С - северный, СВ - северо-восточный, В - восточный, ЮВ - юго-восточный, Ю - южный, ЮЗ - юго-западный, З - западный, СЗ - северо-западный.
Видимость - горизонтальная дальность видимости в метрах или километрах. При видимости от 1 до 10 км при отсутствии осадков обычно наблюдается дымка, при ухудшении видимости до 1 км и менее - туман. В сухую погоду видимость может ухудшаться дымом, пылью или мглою.
Явления - указаны атмосферные явления, наблюдавшиеся в срок или в последний час перед сроком; фигурными скобками обозначены явления, наблюдавшиеся между сроками (за 1-3 часа до срока); квадратными скобками обозначены град или гололедные отложения с указанием их диаметра в мм.
Облачность - указаны через наклонную черту общая и нижняя облачность в баллах и высота нижней границы облаков в метрах; квадратными скобками обозначены формы облаков: Ci - перистые, Cs - перисто-слоистые, Cc - перисто-кучевые, Ac - высококучевые, As - высокослоистые, Sc - слоисто-кучевые, Ns - слоисто-дождевые, Cu - кучевые, Cb - кучево-дождевые. Подробнее классификацию облаков см. в Атласе облаков (PDF).
T - Температура воздуха - температура, измеренная на высоте 2 м над землей.
Td - Температура точки росы - температура, при понижении до которой содержащийся в воздухе водяной пар достигнет насыщения.
f - Относительная влажность воздуха - влажноcть воздуха, измеренная на высоте 2 м над землей.
Te - Эффективная температура - температура, которую ощущает одетый по сезону человек в тени. Характеристика душности погоды. При расчете учитывается влияние влажности воздуха и скорости ветра на теплоощущения человека.
Tes - Эффективная температура на солнце - температура, которую ощущает человек, с поправкой на солнечный нагрев. Характеристика знойности погоды. Зависит от высоты солнца над горизонтом, облачности и скорости ветра. Ночью, в пасмурную погоду, а также при ветре 12 м/с и более поправка равна нулю.
P - Атмосферное давление - приведенное к уровню моря атмосферное давление.
Po - Атмосферное давление - измеренное на уровне метеостанции атмосферное давление.
Tmin - Минимальная температура - минимум температуры воздуха на высоте 2 м над землей.
Tmax - Максимальная температура - максимум температуры воздуха на высоте 2 м над землей.
R - Количество осадков - Количество выпавших осадков за период времени, мм. При наведении курсора мыши на число - период времени, за который выпало указанное количество осадков.
R24 - Количество осадков - Количество выпавших осадков за 24 часа, мм.
S - Снежный покров - Высота снежного покрова, см. При наведении курсора мыши на число - состояние снежного покрова и степень покрытия местности в баллах.